Weather History for Imperial, NE

Change the Weather History Date:

Friday, January 13, 2012

  Actual Average Record
Temperature  
Mean Temperature 34 °F 28 °F  
Max Temperature 48 °F 41 °F 70 °F (1928)
Min Temperature 20 °F 15 °F -26 °F (1905)
Degree Days  
Heating Degree Days 31 37  
Month to date heating degree days 386 481  
Cooling Degree Days 0 0  
Month to date cooling degree days 0 0  
Year to date cooling degree days 0 0  
Moisture  
Dew Point 12 °F    
Average Humidity 46    
Maximum Humidity 68    
Minimum Humidity 24    
Precipitation  
Precipitation 0.00 in 0.01 in 0.20 in (1893)
Sea Level Pressure  
Sea Level Pressure 30.06 in    
Wind  
Wind Speed 12 mph (WNW)    
Max Wind Speed 22 mph    
Max Gust Speed 28 mph    
Visibility 10 miles    
Events      
T = Trace of Precipitation, MM = Missing Value Source: NWS Daily Summary

Daily Weather History Graph

Daily Weather History Graph

Search for Another Location

Airport:

Trip Planner

Search our weather history database for the weather conditions in past years. The results will help you decide how hot, cold, wet, or windy it might be!

Date:

Astronomy

Jan. 13, 2012 Rise Set
Actual Time 7:08 AM MST 4:41 PM MST
Civil Twilight 6:38 AM MST 5:11 PM MST
Nautical Twilight 6:04 AM MST 5:45 PM MST
Astronomical Twilight 5:32 AM MST 6:18 PM MST
Moon 9:58 PM MST (1/13) 9:22 AM MST (1/13)
Length of Visible Light 10h 33m
Length of Day
9h 32m
Waning Gibbous, 78% of the Moon is Illuminated
Jan 13
Waning Gibbous
Jan 16
Last Quarter
Jan 23
New
Jan 30
First Quarter
Feb 7
Full

Hourly Weather History & Observations

Time (MST) Temp. Windchill Dew Point Humidity Pressure Visibility Wind Dir Wind Speed Gust Speed Precip Events Conditions
12:53 AM 28.0 °F 18.1 °F 18.0 °F 66% 30.10 in 10.0 mi West 11.5 mph - N/A   Overcast
1:53 AM 28.9 °F 18.6 °F 15.1 °F 56% 30.08 in 10.0 mi West 12.7 mph - N/A   Overcast
2:53 AM 28.9 °F 19.8 °F 14.0 °F 54% 30.07 in 10.0 mi West 10.4 mph - N/A   Overcast
3:53 AM 28.0 °F 16.5 °F 12.0 °F 51% 30.07 in 10.0 mi West 15.0 mph - N/A   Mostly Cloudy
4:53 AM 27.0 °F 18.0 °F 10.9 °F 51% 30.08 in 10.0 mi WNW 9.2 mph - N/A   Clear
5:53 AM 24.1 °F 13.7 °F 9.0 °F 53% 30.11 in 10.0 mi WNW 10.4 mph - N/A   Clear
6:53 AM 19.4 °F 8.6 °F 8.6 °F 63% 30.02 in 10.0 mi WNW 9.2 mph - N/A   Clear
7:53 AM 19.9 °F 9.3 °F 9.0 °F 62% 30.12 in 10.0 mi WNW 9.2 mph - N/A   Clear
8:53 AM 26.1 °F 17.6 °F 10.0 °F 51% 30.11 in 10.0 mi WNW 8.1 mph - N/A   Clear
9:53 AM 32.0 °F 23.6 °F 10.9 °F 42% 30.11 in 10.0 mi WNW 10.4 mph - N/A   Clear
10:53 AM 37.0 °F 33.3 °F 12.9 °F 37% 30.08 in 10.0 mi West 4.6 mph - N/A   Clear
11:53 AM 37.9 °F 30.5 °F 10.9 °F 33% 30.06 in 10.0 mi West 11.5 mph - N/A   Mostly Cloudy
12:53 PM 42.1 °F 34.5 °F 9.0 °F 26% 30.03 in 10.0 mi WNW 15.0 mph 21.9 mph N/A   Clear
1:53 PM 45.0 °F 38.5 °F 12.0 °F 26% 29.99 in 10.0 mi WNW 13.8 mph - N/A   Mostly Cloudy
2:53 PM 46.9 °F - 12.0 °F 24% 29.98 in 10.0 mi WNW 17.3 mph 24.2 mph N/A   Clear
3:53 PM 46.0 °F 41.4 °F 12.0 °F 25% 29.99 in 10.0 mi West 9.2 mph - N/A   Clear
4:53 PM 37.0 °F 31.0 °F 12.0 °F 36% 30.01 in 10.0 mi West 8.1 mph - N/A   Clear
5:53 PM 37.9 °F 30.0 °F 10.0 °F 32% 30.03 in 10.0 mi West 12.7 mph - N/A   Clear
6:53 PM 39.9 °F 32.1 °F 10.9 °F 31% 30.04 in 10.0 mi West 13.8 mph 21.9 mph N/A   Clear
7:53 PM 39.0 °F 30.6 °F 10.9 °F 32% 30.04 in 10.0 mi West 15.0 mph - N/A   Clear
8:53 PM 37.0 °F 27.7 °F 12.0 °F 36% 30.05 in 10.0 mi WNW 16.1 mph 23.0 mph N/A   Clear
9:53 PM 37.9 °F 28.9 °F 12.0 °F 35% 30.06 in 10.0 mi WNW 16.1 mph - N/A   Clear
10:53 PM 35.1 °F 25.2 °F 12.9 °F 40% 30.09 in 10.0 mi NW 16.1 mph 23.0 mph N/A   Clear
11:53 PM 33.1 °F 23.4 °F 12.0 °F 42% 30.11 in 10.0 mi NW 13.8 mph - N/A   Clear